Location: ?????
(55.8833°N, 37.6500°E)
Time: 19:50:03
(UTC+00:00)

STARLINK-79 - Pass Details

Date: 27 February 2020
Orbit: 529 x 530 km, 53.0° (Epoch: 03 April)

Event Time Altitude Azimuth Distance (km) Brightness Sun altitude
Rises 15:34:43 0° 249° (WSW) 2,666 9.0 -5.9°
Reaches altitude 10° 15:36:57 10° 245° (WSW) 1,778 7.6 -6.2°
Maximum altitude 15:40:52 52° 169° (S) 670 4.0 -6.7°
Drops below altitude 10° 15:44:48 10° 93° (E) 1,783 5.5 -7.3°
Enters shadow 15:44:57 - 92° (E) 1,842 5.6 -7.3°
